Flag for U.S.A. Weather past 2 weeks in Casper, Wyoming, U.S.A.

Now
50 °F

Partly sunny.


Feels Like: 44 °F
Forecast: 26 / 41 °F
Wind: 18 mph from North

Location: Natrona County International Airport

Current Time: Apr 1, 2015 at 7:01:36 PM

Latest Report: Apr 1, 2015 at 5:53 PM


Visibility: 10 mi

Pressure: 29.75 "Hg

Humidity: 36%

Dew point: 24 °F

Location of CasperLocation

Historic Weather in Casper — Graph

°F

Casper temperature yesterday

Maximum temperature yesterday: 75 °F (at 2:53 PM)
Minimum temperature yesterday: 34 °F (at 3:53 AM)
Average temperature yesterday: 55 °F

Past Weeks' High & Low Weather Summary

 TemperatureHumidityPressure
High75 °F (Mar 28, 2:53 PM)93% (Mar 17, 11:53 PM)30.28 "Hg (Mar 17, 11:53 PM)
Low25 °F (Mar 29, 5:53 AM)8% (Mar 29, 5:53 PM)29.52 "Hg (Apr 1, 1:53 AM)
Average46 °F46%29.98 "Hg
* Reported Mar 17 5:53 PM — Apr 1 5:53 PM, Casper, Weather by CustomWeather, © 2015

Note: Actual official high and low records may vary slightly from our data, if they occured in-between our weather recording intervals... More about our weather records

Advertising

Casper weather history for previous 24 hours

 ConditionsComfort  
Time TempWeatherWind HumidityBarometerVisibility
5:53 PM
Wed, Apr 1
50 °FPartly sunny.18 mph36%29.75 "Hg10 mi
4:53 PM52 °FSunny.10 mph31%29.73 "Hg10 mi
3:53 PM50 °FPassing clouds.12 mph41%29.75 "Hg10 mi
2:53 PM49 °FPassing clouds.7 mph44%29.76 "Hg10 mi
1:53 PM44 °FMore clouds than sun.12 mph58%29.79 "Hg10 mi
12:53 PM47 °FBroken clouds.22 mph54%29.77 "Hg10 mi
11:53 AM48 °FMore clouds than sun.12 mph56%29.75 "Hg10 mi
10:53 AM50 °FPartly sunny.5 mph52%29.72 "Hg10 mi
9:53 AM49 °FSunny.7 mph55%29.70 "Hg10 mi
8:53 AM45 °FPartly sunny.10 mph60%29.70 "Hg10 mi
7:53 AM46 °FSunny.15 mph58%29.63 "Hg10 mi
6:53 AM49 °FOvercast.7 mph38%29.59 "Hg10 mi
5:53 AM48 °FOvercast.8 mph36%29.55 "Hg10 mi
4:53 AM48 °FPassing clouds.10 mph34%29.54 "Hg10 mi
3:53 AM48 °FPassing clouds.9 mph33%29.53 "Hg10 mi
2:53 AM49 °FClear.16 mph32%29.52 "Hg10 mi
1:53 AM49 °FClear.14 mph33%29.52 "Hg10 mi
12:53 AM49 °FClear.14 mph33%29.53 "Hg10 mi
11:53 PM
Tue, Mar 31
50 °FClear.13 mph30%29.55 "Hg10 mi
10:53 PM53 °FClear.9 mph27%29.57 "Hg10 mi
9:53 PM54 °FClear.8 mph26%29.59 "Hg10 mi
8:53 PM57 °FClear.8 mph22%29.61 "Hg10 mi
7:53 PM68 °FSunny.16 mph12%29.58 "Hg10 mi
Weather by CustomWeather, © 2015

See weather overviewHow to use our weather pages